HAWK-7C

Last updated on Sun Sep 20 2026 00:03:35 GMT+0000 (Coordinated Universal Time)

1 56200U 23054Y 26262.48985491 .00001757 00000+0 66549-4 0 9996 2 56200 97.2545 146.4435 0004050 72.5368 287.6314 15.28200009191429
UTC large
Height (km)
Speed (km/s)
/
Latitude / Longitude
Inclination (degrees)
Orbital Period (minutes)
Azimuth
Elevation
Range (km)
Doppler Factor

Next 0 passes for location: London (51.5072 / 0.1276)

No passes found over London.
HAWK-7C